Date String (YYYY-MM-DD hh:mm:ss) UTC,Instrument flags,Ambient pressure (hPa),Sample flow (lpm),Bypass flow (lpm),Sample temperature (°C),Ambient temperature (°C),ASC tube jacket temperature (°C),LED temperature (°C),Box temperature (°C),Sample RH (%),Span deviation,Mass concentration (μg/m³),Mass concentration (μg/m³),Mass concentration (μg/m³)
DateTimeUTC,F1_M11,P_M11,Q1_M11,Q2_M11,T1_M11,T2_M11,T3_M11,T4_M11,T5_M11,U1_M11,ZSPAN_M11,X0_M11,X2_M11,X1_M11
2022-05-31 09:00:00,,0822.4,4.99,0.00,24.7,23.7,00.0,33.6,26.6,12.1,0000.0,0001.59,0000.86,0000.56
2022-05-31 09:01:00,,0822.5,5.00,0.00,24.7,23.7,00.0,33.6,26.7,12.1,0000.0,0001.97,0000.85,0000.55
2022-05-31 09:02:00,,0822.5,5.01,0.00,24.7,23.7,00.0,33.6,26.6,12.0,0000.0,0003.37,0000.85,0000.54
2022-05-31 09:03:00,,0822.6,5.00,0.00,24.7,23.7,00.0,33.6,26.6,12.0,0000.0,0003.36,0000.85,0000.54
2022-05-31 09:04:00,,0822.5,5.00,0.00,24.7,23.7,00.0,33.6,26.6,12.0,0000.0,0003.25,0000.81,0000.53
2022-05-31 09:05:00,,0822.6,5.00,0.00,24.7,23.7,00.0,33.6,26.7,11.9,0000.0,0003.27,0000.83,0000.54
2022-05-31 09:06:00,,0822.6,4.99,0.00,24.7,23.7,00.0,33.6,26.6,11.9,0000.0,0003.75,0000.81,0000.53
2022-05-31 09:07:00,,0822.5,5.00,0.00,24.7,23.7,00.0,33.6,26.6,11.9,0000.0,0003.80,0000.79,0000.53
2022-05-31 09:08:00,,0822.5,5.01,0.00,24.7,23.7,00.0,33.6,26.6,11.9,0000.0,0003.88,0000.83,0000.53
2022-05-31 09:09:00,,0822.5,4.98,0.00,24.7,23.7,00.0,33.6,26.6,11.9,0000.0,0004.00,0000.87,0000.54
2022-05-31 09:10:00,,0822.5,5.01,0.00,24.7,23.7,00.0,33.6,26.6,11.9,0000.0,0004.13,0000.91,0000.55
2022-05-31 09:11:00,,0822.5,4.99,0.00,24.7,23.7,00.0,33.6,26.6,11.9,0000.0,0004.18,0000.94,0000.56
2022-05-31 09:12:00,,0822.5,5.00,0.00,24.7,23.7,00.0,33.6,26.6,11.9,0000.0,0004.03,0000.95,0000.56
2022-05-31 09:13:00,,0822.5,5.00,0.00,24.7,23.7,00.0,33.6,26.6,11.9,0000.0,0002.34,0000.95,0000.57
2022-05-31 09:14:00,,0822.5,4.99,0.00,24.7,23.7,00.0,33.6,26.6,11.8,0000.0,0002.31,0000.93,0000.57
2022-05-31 09:15:00,,0822.5,5.01,0.00,24.7,23.7,00.0,33.6,26.6,11.8,0000.0,0002.37,0000.94,0000.57
2022-05-31 09:16:00,,0822.6,5.00,0.00,24.7,23.7,00.0,33.6,26.7,11.9,0000.0,0002.39,0000.93,0000.57
2022-05-31 09:17:00,,0822.6,5.01,0.00,24.7,23.7,00.0,33.6,26.7,11.8,0000.0,0001.98,0000.94,0000.57
2022-05-31 09:18:00,,0822.6,4.99,0.00,24.7,23.7,00.0,33.6,26.7,11.8,0000.0,0001.75,0000.93,0000.58
2022-05-31 09:19:00,,0822.6,5.01,0.00,24.7,23.7,00.0,33.6,26.6,11.8,0000.0,0001.86,0000.98,0000.59
2022-05-31 09:20:00,,0822.6,4.99,0.00,24.7,23.7,00.0,33.6,26.6,11.8,0000.0,0001.96,0000.98,0000.59
2022-05-31 09:21:00,,0822.7,5.00,0.00,24.7,23.6,00.0,33.6,26.6,11.8,0000.0,0001.82,0000.95,0000.59
2022-05-31 09:22:00,,0822.7,5.01,0.00,24.7,23.6,00.0,33.6,26.6,11.9,0000.0,0001.72,0000.92,0000.58
2022-05-31 09:23:00,,0822.7,4.99,0.00,24.7,23.6,00.0,33.6,26.6,11.9,0000.0,0001.64,0000.89,0000.59
2022-05-31 09:24:00,,0822.7,5.01,0.00,24.7,23.7,00.0,33.6,26.6,12.3,0000.0,0001.59,0000.87,0000.59
2022-05-31 09:25:00,,0822.7,5.01,0.00,24.7,23.7,00.0,33.6,26.6,12.2,0000.0,0001.58,0000.87,0000.59
2022-05-31 09:26:00,,0822.8,5.00,0.00,24.7,23.7,00.0,33.6,26.6,12.2,0000.0,0001.66,0000.89,0000.60
2022-05-31 09:27:00,,0822.8,5.00,0.00,24.7,23.7,00.0,33.6,26.6,12.4,0000.0,0001.66,0000.90,0000.61
2022-05-31 09:28:00,,0822.8,5.01,0.00,24.7,23.7,00.0,33.6,26.7,12.7,0000.0,0001.85,0000.93,0000.61
2022-05-31 09:29:00,,0822.9,5.00,0.00,24.7,23.7,00.0,33.6,26.7,13.6,0000.0,0002.04,0000.99,0000.62
2022-05-31 09:30:00,,0822.9,4.99,0.00,24.7,23.7,00.0,33.6,26.7,13.6,0000.0,0002.00,0000.96,0000.61
2022-05-31 09:31:00,,0822.9,5.00,0.00,24.7,23.7,00.0,33.6,26.7,13.5,0000.0,0002.05,0001.00,0000.60
2022-05-31 09:32:00,,0822.9,5.01,0.00,24.7,23.7,00.0,33.6,26.7,13.4,0000.0,0002.71,0001.02,0000.60
2022-05-31 09:33:00,,0822.9,4.99,0.00,24.7,23.8,00.0,33.6,26.7,13.5,0000.0,0003.67,0001.02,0000.59
2022-05-31 09:34:00,,0823.0,5.00,0.00,24.7,23.8,00.0,33.6,26.7,13.4,0000.0,0003.81,0001.05,0000.59
2022-05-31 09:35:00,,0822.9,5.01,0.00,24.7,23.8,00.0,33.6,26.7,13.2,0000.0,0004.64,0001.10,0000.59
2022-05-31 09:36:00,,0822.9,5.01,0.00,24.7,23.8,00.0,33.6,26.7,13.4,0000.0,0004.66,0001.11,0000.59
2022-05-31 09:37:00,,0822.9,4.99,0.00,24.7,23.8,00.0,33.7,26.7,13.5,0000.0,0004.54,0001.09,0000.59
2022-05-31 09:38:00,,0823.0,4.99,0.00,24.8,23.8,00.0,33.7,26.7,13.4,0000.0,0004.64,0001.11,0000.59
2022-05-31 09:39:00,,0823.0,5.00,0.00,24.8,23.8,00.0,33.7,26.7,13.4,0000.0,0004.52,0001.09,0000.59
2022-05-31 09:40:00,,0823.0,5.00,0.00,24.8,23.8,00.0,33.7,26.7,13.5,0000.0,0004.42,0001.07,0000.59
2022-05-31 09:41:00,,0823.1,5.01,0.00,24.8,23.8,00.0,33.7,26.7,13.2,0000.0,0004.43,0001.09,0000.59
2022-05-31 09:42:00,,0823.1,5.00,0.00,24.8,23.8,00.0,33.7,26.7,12.9,0000.0,0004.19,0001.02,0000.60
2022-05-31 09:43:00,,0823.1,5.00,0.00,24.8,23.8,00.0,33.7,26.7,13.0,0000.0,0003.49,0001.00,0000.60
2022-05-31 09:44:00,,0823.1,5.01,0.00,24.8,23.8,00.0,33.7,26.7,13.0,0000.0,0002.54,0000.98,0000.61
2022-05-31 09:45:00,,0823.2,5.00,0.00,24.8,23.8,00.0,33.7,26.7,13.1,0000.0,0002.39,0000.95,0000.62
2022-05-31 09:46:00,,0823.2,5.00,0.00,24.8,23.8,00.0,33.7,26.7,13.5,0000.0,0001.64,0000.90,0000.61
2022-05-31 09:47:00,,0823.3,5.01,0.00,24.8,23.8,00.0,33.7,26.7,13.2,0000.0,0001.63,0000.88,0000.61
2022-05-31 09:48:00,,0823.2,4.99,0.00,24.8,23.8,00.0,33.7,26.7,13.4,0000.0,0001.99,0000.92,0000.61
2022-05-31 09:49:00,,0823.3,5.01,0.00,24.8,23.8,00.0,33.7,26.7,13.2,0000.0,0001.93,0000.89,0000.61
2022-05-31 09:50:00,,0823.3,4.99,0.00,24.8,23.8,00.0,33.7,26.7,13.2,0000.0,0001.89,0000.88,0000.62
2022-05-31 09:51:00,,0823.4,5.01,0.00,24.8,23.8,00.0,33.7,26.7,13.3,0000.0,0001.84,0000.85,0000.61
2022-05-31 09:52:00,,0823.4,4.99,0.00,24.8,23.8,00.0,33.7,26.7,14.5,0000.0,0001.86,0000.82,0000.61
2022-05-31 09:53:00,,0823.5,5.01,0.00,24.8,23.7,00.0,33.7,26.7,15.2,0000.0,0001.96,0000.85,0000.62
2022-05-31 09:54:00,,0823.5,5.00,0.00,24.7,23.7,00.0,33.7,26.6,15.4,0000.0,0002.33,0000.92,0000.64
2022-05-31 09:55:00,,0823.5,5.00,0.00,24.7,23.7,00.0,33.7,26.6,15.5,0000.0,0002.55,0001.02,0000.65
2022-05-31 09:56:00,,0823.5,5.00,0.00,24.7,23.6,00.0,33.7,26.6,15.6,0000.0,0003.69,0001.11,0000.66
2022-05-31 09:57:00,,0823.6,5.00,0.00,24.7,23.7,00.0,33.7,26.7,15.4,0000.0,0003.96,0001.18,0000.66
2022-05-31 09:58:00,,0823.6,5.00,0.00,24.7,23.7,00.0,33.7,26.7,15.3,0000.0,0005.19,0001.24,0000.68
2022-05-31 09:59:00,,0823.6,4.99,0.00,24.7,23.7,00.0,33.7,26.7,15.4,0000.0,0005.02,0001.23,0000.69
